Regional Weather Roundup
Issued by NWS

Home | Current Version | Previous Version | Graphics & Text | Print | Product List | Glossary On
Versions: 1 2 3 4 5 6 7 8 9 10 11 12 13 14 15 16 17 18 19 20 21 22 23 24 25 26 27 28 29 30 31 32 33 34 35 36 37 38 39 40 41 42 43 44 45 46 47 48 49 50
000
ASUS45 KBOU 300607
RWRCO

WEATHER ROUNDUP FOR COLORADO
NATIONAL WEATHER SERVICE DENVER/BOULDER CO
1100 PM MST THU JAN 29 2015

NOTE: "FAIR" INDICATES FEW OR NO CLOUDS BELOW 12000 FEET WITH NO
SIGNIFICANT WEATHER AND/OR OBSTRUCTIONS TO VISIBILITY.

COZ001>005-013-030-031-300700-
...NORTHWEST COLORADO...

CITY           SKY/WX    TMP DP  RH WIND       PRES   REMARKS
CRAIG          CLOUDY    28  25  88 CALM      30.31R
HAYDEN         CLOUDY    32  23  69 E8        30.30S WCI  25
MEEKER         CLOUDY    31  26  82 CALM      30.31R
MOUNT WERNER   NOT AVBL
STEAMBOAT SPGS CLOUDY    30  24  77 CALM      30.31S
WALDEN         CLOUDY    23  19  86 SE7       30.32S WCI  15
$$

COZ006>008-011-300700-
...WEST CENTRAL VALLEYS...

CITY           SKY/WX    TMP DP  RH WIND       PRES   REMARKS
GRAND JUNCTION CLOUDY    41  31  67 CALM      30.28S
MONTROSE       CLOUDY    39  29  67 SE6       30.31F
EAGLE          CLEAR     34  27  75 CALM      30.34R
RIFLE          CLOUDY    37  28  70 CALM      30.30S
DELTA          CLOUDY    43  31  62 CALM      30.30S
NUCLA          CLOUDY    41  32  70 SE3       30.33R
$$

COZ017>023-064>068-300700-
...SOUTHWEST COLORADO...

CITY           SKY/WX    TMP DP  RH WIND       PRES   REMARKS
DURANGO        LGT RAIN  36  34  92 E6        30.36S
CORTEZ         CLOUDY    45  33  63 CALM      30.30F
PAGOSA SPRINGS LGT SNOW  35  34  97 CALM      30.38S
TELLURIDE      CLOUDY    34  29  81 CALM      30.35F
WOLF CREEK PAS NOT AVBL
$$

COZ009-010-012-014-032>034-037-058>063-300700-
...CENTRAL COLORADO...

CITY           SKY/WX    TMP DP  RH WIND       PRES   REMARKS
ASPEN          CLOUDY    32  23  69 S3        30.30F
BUENA VISTA    CLOUDY    30  23  76 CALM      30.40S
COPPER MTN     CLOUDY    28  14  54 S6        30.38F WCI  22
BERTHOUD PASS  CLOUDY    19  14  79 N9        30.40S WCI   9
COTTONWOOD PAS CLOUDY    28  23  80 CALM      30.39F
GUNNISON       CLOUDY    25  19  80 CALM      30.38F
KREMMLING      CLOUDY    25  21  86 CALM      30.35S
LEADVILLE      CLOUDY    22  19  89 S3        30.38S
MONARCH PASS   CLOUDY    23  21  93 MISG      30.50F
SALIDA         CLOUDY    33  27  80 SW6       30.47F WCI  27
SUNLIGHT       FLURRIES  30  25  80 CALM        N/A
WILKERSON PASS CLOUDY    21  19  93 SW13G20   30.40S FOG     WCI   9
$$

COZ069>075-300700-
...SAN LUIS VALLEY/SANGRE DE CRISTO MOUNTAINS...

CITY           SKY/WX    TMP DP  RH WIND       PRES   REMARKS
ALAMOSA        CLOUDY    34  24  67 SE5       30.37F WCI  30
LA VETA PASS   CLOUDY    27  23  86 S6        30.39F FOG     WCI  20
SAGUACHE       LGT SNOW  32  32 100 CALM      30.40S
$$

COZ035-036-038>040-300700-
...NORTHERN COLORADO FRONT RANGE...

CITY           SKY/WX    TMP DP  RH WIND       PRES   REMARKS
DENVER INTL AP CLOUDY    37  24  59 S13       30.32F
DMNS CITY PARK   N/A     38  22  53 SW3       30.32S
AURORA         MOCLDY    38  22  52 S22       30.31F
FRONT RANGE AP NOT AVBL
ERIE MUNI ARPT CLOUDY    32  27  82 CALM      30.33S
BOULDER MUN AP CLOUDY    36  27  69 S3        30.32S
CENTENNIAL     CLOUDY    37  23  56 S12       30.32F
BROOMFIELD     CLOUDY    36  28  75 CALM      30.32F
FORT COLLINS   CLOUDY    30  21  69 N6        30.34S WCI  24
LONGMONT       CLOUDY    33  27  78 CALM      30.34F
$$

COZ041-046-047-076>085-087-088-300700-
...PIKES PEAK/PALMER DIVIDE AND SOUTHERN FOOTHILLS...

CITY           SKY/WX    TMP DP  RH WIND       PRES   REMARKS
COLO. SPRINGS  CLOUDY    34  23  64 SE9       30.40F WCI  27
A. F. ACADEMY  MOCLDY    33  21  61 SE9       30.38F WCI  25
ELLICOTT       MOCLDY   N/A N/A N/A S5        30.39F
FALCON         MOCLDY    30  22  73 SW7       30.40F WCI  23
FORT CARSON    CLOUDY    34  23  63 SW7       30.38F WCI  28
LIMON          MOCLDY    29  22  75 VRB7      30.40F WCI  22
MONUMENT HILL  MOCLDY    32  21  64 S20       30.34F WCI  20
TRINIDAD       CLOUDY    36  27  69 NE7       30.39F
$$

COZ042>045-048>051-090-091-300700-
...NORTHEAST COLORADO...

CITY           SKY/WX    TMP DP  RH WIND       PRES   REMARKS
GREELEY ARPT   CLOUDY    32  19  59 E5        30.32F WCI  27
AKRON          MOCLDY    33  17  51 S13       30.38F WCI  24
BURLINGTON     MOCLDY    31  21  66 S14       30.44F WCI  21
WRAY           MOCLDY    32  23  69 SE3       30.43F
STERLING       MOCLDY    30  21  69 W3        30.38F
HOLYOKE        NOT AVBL
FORT MORGAN    MOCLDY    30  23  74 SE5       30.37F WCI  25
$$

COZ086-089-092>099-300700-
...SOUTHEAST COLORADO...

CITY           SKY/WX    TMP DP  RH WIND       PRES   REMARKS
PUEBLO         CLOUDY    38  24  57 NE9       30.39F
LA JUNTA       CLOUDY    37  27  67 E7        30.41F
LAMAR          CLOUDY    37  22  54 S14       30.43F
SPRINGFIELD      N/A     34  25  69 S8        30.45F WCI  27
$$



USA.gov is the U.S. government's official web portal to all federal, state and local government web resources and services.